sat.trackr.live / text

‹ back to catalog

STARLINK-34816

NORAD 65467 · 2025-195K

PAYLOAD ACTIVE UNKNOWN

§ Identity

Operator
Country
US
Launch date
2025-09-03
Launch site
AFETR
Launch vehicle
Mass (kg)
RCS (m²)

Purposes: comms

External: N2YO · Heavens-Above · Gunter

§ Orbital elements

Epoch: 2026-05-24T19:27:49.422816Z

Period
94.10 min
Inclination
53.1580°
Eccentricity
0.0000890
Mean motion
15.30212788 rev/d
Perigee alt
474.6 km
Apogee alt
475.8 km
Semi-major
6,853.3 km
B*
5.1453e-4
RAAN
264.9303°
Arg perigee
81.6941°
Mean anomaly
278.4161°
Rev number
4,164

§ Raw data

STARLINK-348161 65467U 25195K   26144.81098869  .00014916  00000+0  51453-3 0  99972 65467  53.1580 264.9303 0000890  81.6941 278.4161 15.30212788 41646

JSON: /api/v1/satellites/65467 · /tle

For live sub-satellite position, see the globe view (requires WebGL).

§ Visibility from observer

Set your observer location to see the next 7 days of passes ≥ 10°. The values pass through the URL so the page stays shareable.

No JS? Fill the form by hand. The geolocation button needs JavaScript.